Terug naar catalogus

INTELSAT 4-F2

ActiefCommunicatieGEO
NORAD 4881·PAYLOAD· XX

Gelanceerd Jan 26, 1971 vanaf Cape Canaveral Space Force Station

Loading…

Volgende Passages

TLE

Source: Space-Track
1 04881U 71006A   26218.90221633 -.00000227  00000-0  00000-0 0  9992
2 04881   4.2164 275.7206 0011681 102.5081  67.6926  0.98840684122001

Volg INTELSAT 4-F2 in realtime met AllMySat

Download on the App Store